Time,TemperatureF,DewpointF,PressureIn,WindDirection,WindDirectionDegrees,WindSpeedMPH,WindSpeedGustMPH,Humidity,HourlyPrecipIn,Conditions,Clouds,dailyrainin,SoftwareType,DateUTC
2013-03-11 00:00:00,60.8,35.7,29.88,SSE,161,4.0,5.0,39,0.00,,---,0.00,VWS V14.01,2013-03-11 04:00:00,
2013-03-11 00:05:00,60.8,36.3,29.89,SE,144,4.0,7.0,40,0.00,,---,0.00,VWS V14.01,2013-03-11 04:05:00,
2013-03-11 00:11:00,60.6,36.2,29.89,SE,144,1.0,8.0,40,0.00,,---,0.00,VWS V14.01,2013-03-11 04:11:00,
2013-03-11 00:16:00,60.6,36.2,29.89,ESE,115,2.0,8.0,40,0.00,,---,0.00,VWS V14.01,2013-03-11 04:16:00,
2013-03-11 00:21:00,60.6,36.2,29.89,ESE,105,3.0,8.0,40,0.00,,---,0.00,VWS V14.01,2013-03-11 04:21:00,
2013-03-11 00:26:00,60.5,36.1,29.89,WSW,253,2.0,8.0,40,0.00,,---,0.00,VWS V14.01,2013-03-11 04:26:00,
2013-03-11 00:30:00,60.5,36.1,29.89,SE,140,0.0,8.0,40,0.00,,---,0.00,VWS V14.01,2013-03-11 04:30:00,
2013-03-11 00:31:00,60.4,36.0,29.89,SE,135,2.0,5.0,40,0.00,,---,0.00,VWS V14.01,2013-03-11 04:31:00,
2013-03-11 00:36:00,60.4,36.0,29.89,South,180,1.0,7.0,40,0.00,,---,0.00,VWS V14.01,2013-03-11 04:36:00,
2013-03-11 00:41:00,60.5,36.1,29.89,SSE,155,5.0,12.0,40,0.00,,---,0.00,VWS V14.01,2013-03-11 04:41:00,
2013-03-11 00:46:00,60.5,36.1,29.89,SW,225,4.0,12.0,40,0.00,,---,0.00,VWS V14.01,2013-03-11 04:46:00,
2013-03-11 00:51:00,60.3,35.9,29.88,SSW,198,3.0,12.0,40,0.00,,---,0.00,VWS V14.01,2013-03-11 04:51:00,
2013-03-11 00:56:00,60.2,35.8,29.88,South,175,1.0,12.0,40,0.00,,---,0.00,VWS V14.01,2013-03-11 04:56:00,
2013-03-11 01:00:00,60.2,35.8,29.88,South,175,0.0,12.0,40,0.00,,---,0.00,VWS V14.01,2013-03-11 05:00:00,
2013-03-11 01:01:00,60.1,35.7,29.88,South,180,2.0,7.0,40,0.00,,---,0.00,VWS V14.01,2013-03-11 05:01:00,
2013-03-11 01:06:00,60.0,35.6,29.88,SSE,160,1.0,7.0,40,0.00,,---,0.00,VWS V14.01,2013-03-11 05:06:00,
2013-03-11 01:11:00,60.0,36.2,29.88,SE,134,3.0,9.0,41,0.00,,---,0.00,VWS V14.01,2013-03-11 05:11:00,
2013-03-11 01:17:00,59.9,36.2,29.87,SE,140,4.0,9.0,41,0.00,,---,0.00,VWS V14.01,2013-03-11 05:17:00,
2013-03-11 01:22:00,59.9,36.2,29.88,SSW,207,0.0,9.0,41,0.00,,---,0.00,VWS V14.01,2013-03-11 05:22:00,
2013-03-11 01:27:00,59.8,36.1,29.88,South,187,3.0,9.0,41,0.00,,---,0.00,VWS V14.01,2013-03-11 05:27:00,
2013-03-11 01:30:00,59.8,36.1,29.88,SSE,155,4.0,9.0,41,0.00,,---,0.00,VWS V14.01,2013-03-11 05:30:00,
2013-03-11 01:32:00,59.8,36.1,29.88,ESE,111,0.0,6.0,41,0.00,,---,0.00,VWS V14.01,2013-03-11 05:32:00,
2013-03-11 01:37:00,59.7,36.0,29.88,SW,218,3.0,6.0,41,0.00,,---,0.00,VWS V14.01,2013-03-11 05:37:00,
2013-03-11 01:42:00,59.7,36.0,29.88,South,170,2.0,6.0,41,0.00,,---,0.00,VWS V14.01,2013-03-11 05:42:00,
2013-03-11 01:47:00,59.7,36.6,29.88,SSE,151,0.0,6.0,42,0.00,,---,0.00,VWS V14.01,2013-03-11 05:47:00,
2013-03-11 01:52:00,59.6,36.5,29.88,SSW,194,0.0,6.0,42,0.00,,---,0.00,VWS V14.01,2013-03-11 05:52:00,
2013-03-11 01:57:00,59.5,36.4,29.88,SE,132,2.0,7.0,42,0.00,,---,0.00,VWS V14.01,2013-03-11 05:57:00,
2013-03-11 02:00:00,59.5,36.4,29.88,SSW,213,6.0,7.0,42,0.00,,---,0.00,VWS V14.01,2013-03-11 06:00:00,
2013-03-11 02:02:00,59.6,36.5,29.88,SSW,200,2.0,7.0,42,0.00,,---,0.00,VWS V14.01,2013-03-11 06:02:00,
2013-03-11 02:07:00,59.5,36.4,29.87,SSE,157,0.0,7.0,42,0.00,,---,0.00,VWS V14.01,2013-03-11 06:07:00,
2013-03-11 02:12:00,59.3,36.8,29.87,SE,130,4.0,7.0,43,0.00,,---,0.00,VWS V14.01,2013-03-11 06:12:00,
2013-03-11 02:17:00,59.1,36.0,29.87,South,180,0.0,7.0,42,0.00,,---,0.00,VWS V14.01,2013-03-11 06:17:00,
2013-03-11 02:22:00,59.0,36.0,29.87,South,170,2.0,7.0,42,0.00,,---,0.00,VWS V14.01,2013-03-11 06:22:00,
2013-03-11 02:27:00,59.0,36.6,29.86,South,175,0.0,7.0,43,0.00,,---,0.00,VWS V14.01,2013-03-11 06:27:00,
2013-03-11 02:30:00,59.0,36.6,29.86,SW,224,5.0,7.0,43,0.00,,---,0.00,VWS V14.01,2013-03-11 06:30:00,
2013-03-11 02:32:00,58.9,37.0,29.87,SSE,150,5.0,5.0,44,0.00,,---,0.00,VWS V14.01,2013-03-11 06:32:00,
2013-03-11 02:37:00,58.8,37.0,29.87,SSW,192,2.0,8.0,44,0.00,,---,0.00,VWS V14.01,2013-03-11 06:37:00,
2013-03-11 02:42:00,58.7,36.9,29.87,SE,133,0.0,8.0,44,0.00,,---,0.00,VWS V14.01,2013-03-11 06:42:00,
2013-03-11 02:47:00,58.6,36.8,29.87,South,170,0.0,8.0,44,0.00,,---,0.00,VWS V14.01,2013-03-11 06:47:00,
2013-03-11 02:52:00,58.5,36.7,29.88,ESE,103,4.0,8.0,44,0.00,,---,0.00,VWS V14.01,2013-03-11 06:52:00,
2013-03-11 02:57:00,58.4,36.6,29.87,WSW,240,0.0,8.0,44,0.00,,---,0.00,VWS V14.01,2013-03-11 06:57:00,
2013-03-11 03:00:00,58.4,36.6,29.87,WSW,240,0.0,8.0,44,0.00,,---,0.00,VWS V14.01,2013-03-11 07:00:00,
2013-03-11 03:02:00,58.3,37.1,29.88,ESE,121,0.0,4.0,45,0.00,,---,0.00,VWS V14.01,2013-03-11 07:02:00,
2013-03-11 03:07:00,58.2,36.4,29.87,SSW,192,2.0,4.0,44,0.00,,---,0.00,VWS V14.01,2013-03-11 07:07:00,
2013-03-11 03:12:00,58.2,36.4,29.87,South,180,1.0,4.0,44,0.00,,---,0.00,VWS V14.01,2013-03-11 07:12:00,
2013-03-11 03:17:00,58.1,36.3,29.87,SSE,161,3.0,4.0,44,0.00,,---,0.00,VWS V14.01,2013-03-11 07:17:00,
2013-03-11 03:22:00,58.0,36.8,29.87,SSW,199,0.0,4.0,45,0.00,,---,0.00,VWS V14.01,2013-03-11 07:22:00,
2013-03-11 03:27:00,57.9,36.7,29.87,SSW,207,0.0,0.0,45,0.00,,---,0.00,VWS V14.01,2013-03-11 07:27:00,
2013-03-11 03:30:00,57.9,36.7,29.87,SSW,207,0.0,4.0,45,0.00,,---,0.00,VWS V14.01,2013-03-11 07:30:00,
2013-03-11 03:32:00,57.9,36.7,29.87,South,180,0.0,5.0,45,0.00,,---,0.00,VWS V14.01,2013-03-11 07:32:00,
2013-03-11 03:37:00,57.8,37.2,29.86,SSE,157,0.0,5.0,46,0.00,,---,0.00,VWS V14.01,2013-03-11 07:37:00,
2013-03-11 03:42:00,57.7,37.1,29.86,SSE,157,0.0,5.0,46,0.00,,---,0.00,VWS V14.01,2013-03-11 07:42:00,
2013-03-11 03:47:00,57.5,36.9,29.86,SSE,157,0.0,5.0,46,0.00,,---,0.00,VWS V14.01,2013-03-11 07:47:00,
2013-03-11 03:53:00,57.4,36.8,29.86,SSE,157,0.0,5.0,46,0.00,,---,0.00,VWS V14.01,2013-03-11 07:53:00,
2013-03-11 03:58:00,57.3,36.7,29.85,SSE,157,0.0,0.0,46,0.00,,---,0.00,VWS V14.01,2013-03-11 07:58:00,
2013-03-11 04:00:00,57.3,36.7,29.86,SSE,157,0.0,5.0,46,0.00,,---,0.00,VWS V14.01,2013-03-11 08:00:00,
2013-03-11 04:03:00,57.1,37.6,29.85,SSE,157,0.0,1.0,48,0.00,,---,0.00,VWS V14.01,2013-03-11 08:03:00,
2013-03-11 04:08:00,57.0,38.6,29.83,SSE,157,0.0,2.0,50,0.00,,---,0.00,VWS V14.01,2013-03-11 08:08:00,
2013-03-11 04:13:00,56.8,38.9,29.83,SE,131,0.0,3.0,51,0.00,,---,0.00,VWS V14.01,2013-03-11 08:13:00,
2013-03-11 04:18:00,56.6,38.7,29.86,SSW,206,0.0,5.0,51,0.00,,---,0.00,VWS V14.01,2013-03-11 08:18:00,
2013-03-11 04:23:00,56.3,37.9,29.86,SSW,206,0.0,5.0,50,0.00,,---,0.00,VWS V14.01,2013-03-11 08:23:00,
2013-03-11 04:28:00,56.0,37.6,29.85,SSW,206,0.0,0.0,50,0.00,,---,0.00,VWS V14.01,2013-03-11 08:28:00,
2013-03-11 04:30:00,56.0,38.2,29.85,SSW,206,0.0,5.0,51,0.00,,---,0.00,VWS V14.01,2013-03-11 08:30:00,
2013-03-11 04:33:00,56.0,37.6,29.85,SSW,206,0.0,2.0,50,0.00,,---,0.00,VWS V14.01,2013-03-11 08:33:00,
2013-03-11 04:38:00,56.0,37.1,29.85,SW,215,0.0,3.0,49,0.00,,---,0.00,VWS V14.01,2013-03-11 08:38:00,
2013-03-11 04:43:00,56.0,38.6,29.83,SSW,210,2.0,3.0,52,0.00,,---,0.00,VWS V14.01,2013-03-11 08:43:00,
2013-03-11 04:48:00,55.7,39.3,29.83,SW,217,2.0,4.0,54,0.00,,---,0.00,VWS V14.01,2013-03-11 08:48:00,
2013-03-11 04:53:00,55.6,39.7,29.83,SSW,197,0.0,4.0,55,0.00,,---,0.00,VWS V14.01,2013-03-11 08:53:00,
2013-03-11 04:58:00,55.4,39.0,29.84,SSW,197,1.0,2.0,54,0.00,,---,0.00,VWS V14.01,2013-03-11 08:58:00,
2013-03-11 05:00:00,55.5,40.1,29.83,SSW,197,1.0,4.0,56,0.00,,---,0.00,VWS V14.01,2013-03-11 09:00:00,
2013-03-11 05:03:00,55.0,39.2,29.84,SSW,197,0.0,2.0,55,0.00,,---,0.00,VWS V14.01,2013-03-11 09:03:00,
2013-03-11 05:08:00,54.8,39.4,29.83,SSW,197,0.0,2.0,56,0.00,,---,0.00,VWS V14.01,2013-03-11 09:08:00,
2013-03-11 05:13:00,54.6,38.8,29.83,SSW,197,2.0,2.0,55,0.00,,---,0.00,VWS V14.01,2013-03-11 09:13:00,
2013-03-11 05:18:00,54.6,38.8,29.84,SSW,197,0.0,2.0,55,0.00,,---,0.00,VWS V14.01,2013-03-11 09:18:00,
2013-03-11 05:23:00,54.6,38.8,29.85,SSW,197,0.0,2.0,55,0.00,,---,0.00,VWS V14.01,2013-03-11 09:23:00,
2013-03-11 05:28:00,54.6,38.8,29.84,SSW,197,0.0,0.0,55,0.00,,---,0.00,VWS V14.01,2013-03-11 09:28:00,
2013-03-11 05:30:00,54.6,38.8,29.84,SSW,197,0.0,2.0,55,0.00,,---,0.00,VWS V14.01,2013-03-11 09:30:00,
2013-03-11 05:33:00,54.5,40.5,29.81,South,180,1.0,2.0,59,0.00,,---,0.00,VWS V14.01,2013-03-11 09:33:00,
2013-03-11 05:38:00,54.1,39.2,29.83,SSW,193,4.0,5.0,57,0.00,,---,0.00,VWS V14.01,2013-03-11 09:38:00,
2013-03-11 05:43:00,54.0,39.1,29.84,SSW,193,0.0,5.0,57,0.00,,---,0.00,VWS V14.01,2013-03-11 09:43:00,
2013-03-11 05:48:00,54.1,38.3,29.83,SSE,157,0.0,5.0,55,0.00,,---,0.00,VWS V14.01,2013-03-11 09:48:00,
2013-03-11 05:53:00,54.3,38.0,29.84,SSE,161,1.0,5.0,54,0.00,,---,0.00,VWS V14.01,2013-03-11 09:53:00,
2013-03-11 05:58:00,54.4,39.0,29.84,SSE,161,0.0,1.0,56,0.00,,---,0.00,VWS V14.01,2013-03-11 09:58:00,
2013-03-11 06:00:00,54.4,39.0,29.84,SSE,161,1.0,5.0,56,0.00,,---,0.00,VWS V14.01,2013-03-11 10:00:00,
2013-03-11 06:03:00,54.4,39.0,29.84,SSE,163,0.0,2.0,56,0.00,,---,0.00,VWS V14.01,2013-03-11 10:03:00,
2013-03-11 06:08:00,54.4,38.1,29.84,SSE,163,0.0,2.0,54,0.00,,---,0.00,VWS V14.01,2013-03-11 10:08:00,
2013-03-11 06:13:00,54.3,37.5,29.84,SSE,163,0.0,2.0,53,0.00,,---,0.00,VWS V14.01,2013-03-11 10:13:00,
2013-03-11 06:18:00,54.3,38.0,29.85,SSE,163,0.0,2.0,54,0.00,,---,0.00,VWS V14.01,2013-03-11 10:18:00,
2013-03-11 06:23:00,54.4,37.2,29.85,SSW,198,0.0,3.0,52,0.00,,---,0.00,VWS V14.01,2013-03-11 10:23:00,
2013-03-11 06:28:00,54.7,37.4,29.85,SE,140,0.0,1.0,52,0.00,,---,0.00,VWS V14.01,2013-03-11 10:28:00,
2013-03-11 06:30:00,54.6,37.8,29.85,SE,140,0.0,4.0,53,0.00,,---,0.00,VWS V14.01,2013-03-11 10:30:00,
2013-03-11 06:33:00,54.7,38.4,29.85,SSW,197,5.0,7.0,54,0.00,,---,0.00,VWS V14.01,2013-03-11 10:33:00,
2013-03-11 06:38:00,54.4,42.1,29.86,SW,222,0.0,12.0,63,0.01,,---,0.01,VWS V14.01,2013-03-11 10:38:00,
2013-03-11 06:43:00,52.9,43.0,29.86,SSW,192,2.0,12.0,69,0.02,,---,0.02,VWS V14.01,2013-03-11 10:43:00,
2013-03-11 06:48:00,52.1,43.4,29.87,SW,219,1.0,12.0,72,0.02,,---,0.02,VWS V14.01,2013-03-11 10:48:00,
2013-03-11 06:53:00,51.4,43.8,29.86,SW,230,1.0,12.0,75,0.03,,---,0.03,VWS V14.01,2013-03-11 10:53:00,
2013-03-11 06:59:00,50.8,44.5,29.88,South,184,2.0,3.0,79,0.05,,---,0.05,VWS V14.01,2013-03-11 10:59:00,
2013-03-11 07:00:00,51.0,44.4,29.87,South,184,1.0,12.0,78,0.04,,---,0.04,VWS V14.01,2013-03-11 11:00:00,
2013-03-11 07:04:00,50.3,44.7,29.88,SE,143,0.0,3.0,81,0.05,,---,0.05,VWS V14.01,2013-03-11 11:04:00,
2013-03-11 07:09:00,49.9,45.0,29.87,South,175,5.0,5.0,83,0.07,,---,0.07,VWS V14.01,2013-03-11 11:09:00,
2013-03-11 07:14:00,49.6,45.0,29.87,ESE,121,2.0,8.0,84,0.08,,---,0.08,VWS V14.01,2013-03-11 11:14:00,
2013-03-11 07:19:00,49.3,45.0,29.87,South,180,0.0,8.0,85,0.10,,---,0.10,VWS V14.01,2013-03-11 11:19:00,
2013-03-11 07:24:00,49.0,45.0,29.86,SSW,213,3.0,8.0,86,0.11,,---,0.11,VWS V14.01,2013-03-11 11:24:00,
2013-03-11 07:29:00,48.8,44.8,29.86,SE,146,6.0,8.0,86,0.12,,---,0.12,VWS V14.01,2013-03-11 11:29:00,
2013-03-11 07:30:00,48.9,44.9,29.86,South,180,2.0,8.0,86,0.12,,---,0.12,VWS V14.01,2013-03-11 11:30:00,
2013-03-11 07:34:00,48.8,45.1,29.86,SE,140,2.0,8.0,87,0.14,,---,0.14,VWS V14.01,2013-03-11 11:34:00,
2013-03-11 07:39:00,48.7,45.3,29.86,SSW,200,4.0,8.0,88,0.15,,---,0.15,VWS V14.01,2013-03-11 11:39:00,
2013-03-11 07:44:00,48.6,45.5,29.86,South,170,0.0,12.0,89,0.15,,---,0.15,VWS V14.01,2013-03-11 11:44:00,
2013-03-11 07:49:00,48.6,45.8,29.86,South,186,0.0,12.0,90,0.16,,---,0.16,VWS V14.01,2013-03-11 11:49:00,
2013-03-11 07:54:00,48.6,45.8,29.85,South,170,1.0,12.0,90,0.17,,---,0.17,VWS V14.01,2013-03-11 11:54:00,
2013-03-11 07:59:00,48.5,46.0,29.85,SSW,192,1.0,3.0,91,0.14,,---,0.18,VWS V14.01,2013-03-11 11:59:00,
2013-03-11 08:00:00,48.6,46.1,29.85,South,185,1.0,12.0,91,0.17,,---,0.17,VWS V14.01,2013-03-11 12:00:00,
2013-03-11 08:04:00,48.5,46.0,29.87,ESE,111,1.0,3.0,91,0.14,,---,0.18,VWS V14.01,2013-03-11 12:04:00,
2013-03-11 08:09:00,48.4,45.9,29.87,South,175,0.0,8.0,91,0.14,,---,0.18,VWS V14.01,2013-03-11 12:09:00,
2013-03-11 08:14:00,48.3,45.8,29.88,South,185,1.0,8.0,91,0.14,,---,0.18,VWS V14.01,2013-03-11 12:14:00,
2013-03-11 08:19:00,48.3,45.8,29.87,SSW,198,3.0,8.0,91,0.14,,---,0.18,VWS V14.01,2013-03-11 12:19:00,
2013-03-11 08:24:00,48.2,45.7,29.86,SSW,197,1.0,8.0,91,0.15,,---,0.19,VWS V14.01,2013-03-11 12:24:00,
2013-03-11 08:29:00,48.1,45.6,29.83,ESE,122,0.0,2.0,91,0.07,,---,0.19,VWS V14.01,2013-03-11 12:29:00,
2013-03-11 08:30:00,48.2,45.7,29.84,East,90,0.0,8.0,91,0.15,,---,0.19,VWS V14.01,2013-03-11 12:30:00,
2013-03-11 08:34:00,48.2,45.7,29.85,WSW,257,0.0,7.0,91,0.07,,---,0.19,VWS V14.01,2013-03-11 12:34:00,
2013-03-11 08:39:00,48.3,45.8,29.86,SSW,210,3.0,7.0,91,0.07,,---,0.19,VWS V14.01,2013-03-11 12:39:00,
2013-03-11 08:44:00,48.4,45.9,29.87,SW,215,0.0,7.0,91,0.07,,---,0.19,VWS V14.01,2013-03-11 12:44:00,
2013-03-11 08:49:00,48.4,45.9,29.87,South,185,0.0,7.0,91,0.07,,---,0.19,VWS V14.01,2013-03-11 12:49:00,
2013-03-11 08:54:00,48.4,45.9,29.87,South,185,0.0,7.0,91,0.07,,---,0.19,VWS V14.01,2013-03-11 12:54:00,
2013-03-11 08:59:00,48.4,45.9,29.87,SSE,161,2.0,3.0,91,0.03,,---,0.20,VWS V14.01,2013-03-11 12:59:00,
2013-03-11 09:00:00,48.4,45.9,29.86,SSE,148,0.0,7.0,91,0.08,,---,0.20,VWS V14.01,2013-03-11 13:00:00,
2013-03-11 09:04:00,48.3,45.8,29.88,SSE,161,2.0,3.0,91,0.03,,---,0.20,VWS V14.01,2013-03-11 13:04:00,
2013-03-11 09:09:00,48.3,45.8,29.87,SE,146,0.0,3.0,91,0.03,,---,0.20,VWS V14.01,2013-03-11 13:09:00,
2013-03-11 09:14:00,48.2,46.0,29.86,SE,146,0.0,3.0,92,0.03,,---,0.20,VWS V14.01,2013-03-11 13:14:00,
2013-03-11 09:19:00,48.1,45.6,29.86,SE,146,0.0,3.0,91,0.03,,---,0.20,VWS V14.01,2013-03-11 13:19:00,
2013-03-11 09:24:00,48.1,45.9,29.86,SE,146,0.0,3.0,92,0.03,,---,0.20,VWS V14.01,2013-03-11 13:24:00,
2013-03-11 09:29:00,48.1,45.9,29.85,SE,146,0.0,0.0,92,0.01,,---,0.20,VWS V14.01,2013-03-11 13:29:00,
2013-03-11 09:30:00,48.1,45.9,29.85,SE,146,0.0,3.0,92,0.03,,---,0.20,VWS V14.01,2013-03-11 13:30:00,
2013-03-11 09:34:00,48.0,45.8,29.83,SE,146,0.0,2.0,92,0.01,,---,0.20,VWS V14.01,2013-03-11 13:34:00,
2013-03-11 09:39:00,48.0,45.8,29.85,SSW,192,2.0,4.0,92,0.01,,---,0.20,VWS V14.01,2013-03-11 13:39:00,
2013-03-11 09:44:00,47.9,46.0,29.85,SSE,165,1.0,4.0,93,0.01,,---,0.20,VWS V14.01,2013-03-11 13:44:00,
2013-03-11 09:49:00,47.9,46.0,29.86,SSE,165,0.0,4.0,93,0.01,,---,0.20,VWS V14.01,2013-03-11 13:49:00,
2013-03-11 09:54:00,47.8,45.9,29.85,SW,221,0.0,4.0,93,0.01,,---,0.20,VWS V14.01,2013-03-11 13:54:00,
2013-03-11 09:59:00,47.8,45.9,29.83,SW,221,0.0,0.0,93,0.00,,---,0.20,VWS V14.01,2013-03-11 13:59:00,
2013-03-11 10:00:00,47.8,45.9,29.84,SW,221,0.0,4.0,93,0.01,,---,0.20,VWS V14.01,2013-03-11 14:00:00,
2013-03-11 10:04:00,47.7,45.5,29.84,SW,221,0.0,3.0,92,0.00,,---,0.20,VWS V14.01,2013-03-11 14:04:00,
2013-03-11 10:09:00,47.7,45.5,29.82,SW,221,0.0,3.0,92,0.00,,---,0.20,VWS V14.01,2013-03-11 14:09:00,
2013-03-11 10:14:00,47.7,45.5,29.83,SW,221,0.0,3.0,92,0.01,,---,0.21,VWS V14.01,2013-03-11 14:14:00,
2013-03-11 10:19:00,47.6,45.7,29.83,SW,221,0.0,3.0,93,0.01,,---,0.21,VWS V14.01,2013-03-11 14:19:00,
2013-03-11 10:24:00,47.6,45.7,29.84,SW,221,0.0,3.0,93,0.01,,---,0.21,VWS V14.01,2013-03-11 14:24:00,
2013-03-11 10:29:00,47.6,45.7,29.84,SW,221,0.0,0.0,93,0.01,,---,0.21,VWS V14.01,2013-03-11 14:29:00,
2013-03-11 10:30:00,47.6,45.7,29.83,SW,221,0.0,3.0,93,0.01,,---,0.21,VWS V14.01,2013-03-11 14:30:00,
2013-03-11 10:34:00,47.6,45.4,29.83,SW,221,0.0,3.0,92,0.01,,---,0.21,VWS V14.01,2013-03-11 14:34:00,
2013-03-11 10:39:00,47.7,45.5,29.83,SW,221,0.0,3.0,92,0.01,,---,0.21,VWS V14.01,2013-03-11 14:39:00,
2013-03-11 10:44:00,47.7,45.2,29.83,SW,221,0.0,3.0,91,0.01,,---,0.21,VWS V14.01,2013-03-11 14:44:00,
2013-03-11 10:49:00,47.8,45.3,29.83,SW,221,0.0,3.0,91,0.01,,---,0.21,VWS V14.01,2013-03-11 14:49:00,
2013-03-11 10:54:00,47.8,44.7,29.82,SW,221,0.0,3.0,89,0.01,,---,0.21,VWS V14.01,2013-03-11 14:54:00,
2013-03-11 10:59:00,47.8,44.4,29.82,SW,234,0.0,2.0,88,0.01,,---,0.21,VWS V14.01,2013-03-11 14:59:00,
2013-03-11 11:00:00,47.8,44.7,29.82,SW,221,0.0,3.0,89,0.01,,---,0.21,VWS V14.01,2013-03-11 15:00:00,
2013-03-11 11:04:00,48.0,44.3,29.82,SW,234,0.0,2.0,87,0.01,,---,0.21,VWS V14.01,2013-03-11 15:04:00,
2013-03-11 11:09:00,48.3,44.0,29.82,South,170,0.0,4.0,85,0.01,,---,0.21,VWS V14.01,2013-03-11 15:09:00,
2013-03-11 11:14:00,48.5,43.9,29.81,SSW,202,0.0,4.0,84,0.01,,---,0.21,VWS V14.01,2013-03-11 15:14:00,
2013-03-11 11:19:00,48.7,43.5,29.81,SSW,202,1.0,4.0,82,0.01,,---,0.21,VWS V14.01,2013-03-11 15:19:00,
2013-03-11 11:24:00,48.8,44.2,29.82,SSW,202,0.0,4.0,84,0.01,,---,0.21,VWS V14.01,2013-03-11 15:24:00,
2013-03-11 11:30:00,48.8,44.2,29.82,SSW,202,0.0,2.0,84,0.01,,---,0.22,VWS V14.01,2013-03-11 15:30:00,
2013-03-11 11:35:00,48.8,44.5,29.82,SSW,202,1.0,2.0,85,0.02,,---,0.23,VWS V14.01,2013-03-11 15:35:00,
2013-03-11 11:40:00,48.7,44.7,29.80,South,170,0.0,2.0,86,0.02,,---,0.23,VWS V14.01,2013-03-11 15:40:00,
2013-03-11 11:45:00,48.6,44.6,29.77,SE,136,0.0,3.0,86,0.03,,---,0.24,VWS V14.01,2013-03-11 15:45:00,
2013-03-11 11:50:00,48.5,44.8,29.78,SSW,197,0.0,3.0,87,0.03,,---,0.24,VWS V14.01,2013-03-11 15:50:00,
2013-03-11 11:55:00,48.4,44.7,29.77,SSW,197,0.0,3.0,87,0.03,,---,0.24,VWS V14.01,2013-03-11 15:55:00,
2013-03-11 12:00:00,48.4,45.3,29.77,SSW,197,0.0,0.0,89,0.03,,---,0.24,VWS V14.01,2013-03-11 16:00:00,
2013-03-11 12:05:00,48.5,45.4,29.77,SSW,197,0.0,2.0,89,0.03,,---,0.24,VWS V14.01,2013-03-11 16:05:00,
2013-03-11 12:10:00,48.5,45.4,29.76,SSW,197,0.0,2.0,89,0.03,,---,0.24,VWS V14.01,2013-03-11 16:10:00,
2013-03-11 12:15:00,48.7,45.9,29.76,SW,221,1.0,3.0,90,0.03,,---,0.24,VWS V14.01,2013-03-11 16:15:00,
2013-03-11 12:20:00,49.0,45.6,29.75,SSE,159,2.0,4.0,88,0.03,,---,0.24,VWS V14.01,2013-03-11 16:20:00,
2013-03-11 12:25:00,49.4,44.8,29.75,South,180,0.0,4.0,84,0.03,,---,0.24,VWS V14.01,2013-03-11 16:25:00,
2013-03-11 12:30:00,50.0,44.7,29.75,SSW,202,1.0,4.0,82,0.03,,---,0.24,VWS V14.01,2013-03-11 16:30:00,
2013-03-11 12:35:00,50.6,44.3,29.75,SE,125,6.0,8.0,79,0.03,,---,0.24,VWS V14.01,2013-03-11 16:35:00,
2013-03-11 12:40:00,51.2,44.2,29.75,ESE,111,1.0,8.0,77,0.03,,---,0.24,VWS V14.01,2013-03-11 16:40:00,
2013-03-11 12:45:00,51.7,43.7,29.74,SE,140,3.0,10.0,74,0.03,,---,0.24,VWS V14.01,2013-03-11 16:45:00,
2013-03-11 12:50:00,52.4,43.7,29.73,SE,134,5.0,10.0,72,0.03,,---,0.24,VWS V14.01,2013-03-11 16:50:00,
2013-03-11 12:55:00,53.1,42.5,29.73,South,189,1.0,10.0,67,0.03,,---,0.24,VWS V14.01,2013-03-11 16:55:00,
2013-03-11 13:00:00,53.7,42.6,29.74,SE,134,3.0,6.0,66,0.00,,---,0.24,VWS V14.01,2013-03-11 17:00:00,
2013-03-11 13:05:00,54.1,42.2,29.73,WNW,288,7.0,12.0,64,0.00,,---,0.24,VWS V14.01,2013-03-11 17:05:00,
2013-03-11 13:10:00,54.5,42.2,29.74,East,89,5.0,12.0,63,0.00,,---,0.24,VWS V14.01,2013-03-11 17:10:00,
2013-03-11 13:15:00,54.8,42.0,29.73,SSE,159,3.0,12.0,62,0.00,,---,0.24,VWS V14.01,2013-03-11 17:15:00,
2013-03-11 13:20:00,55.0,42.7,29.73,South,187,15.0,29.0,63,0.00,,---,0.24,VWS V14.01,2013-03-11 17:20:00,
2013-03-11 13:25:00,55.0,43.9,29.73,SSE,163,4.0,29.0,66,0.00,,---,0.24,VWS V14.01,2013-03-11 17:25:00,
2013-03-11 13:30:00,54.6,45.0,29.74,SSE,161,6.0,12.0,70,0.00,,---,0.24,VWS V14.01,2013-03-11 17:30:00,
2013-03-11 13:35:00,53.6,45.9,29.73,South,170,5.0,14.0,75,0.01,,---,0.25,VWS V14.01,2013-03-11 17:35:00,
2013-03-11 13:40:00,52.5,46.2,29.74,South,170,4.0,14.0,79,0.01,,---,0.25,VWS V14.01,2013-03-11 17:40:00,
2013-03-11 13:45:00,51.7,45.7,29.73,SSE,154,1.0,14.0,80,0.02,,---,0.26,VWS V14.01,2013-03-11 17:45:00,
2013-03-11 13:50:00,51.2,45.9,29.73,SE,124,2.0,14.0,82,0.03,,---,0.27,VWS V14.01,2013-03-11 17:50:00,
2013-03-11 13:55:00,50.6,46.3,29.72,East,93,4.0,14.0,85,0.04,,---,0.28,VWS V14.01,2013-03-11 17:55:00,
2013-03-11 14:00:00,50.3,46.3,29.71,SSE,152,0.0,5.0,86,0.04,,---,0.28,VWS V14.01,2013-03-11 18:00:00,
2013-03-11 14:05:00,50.0,46.0,29.71,ESE,122,2.0,5.0,86,0.05,,---,0.29,VWS V14.01,2013-03-11 18:05:00,
2013-03-11 14:10:00,49.7,46.0,29.70,SE,134,2.0,5.0,87,0.05,,---,0.29,VWS V14.01,2013-03-11 18:10:00,
2013-03-11 14:15:00,49.6,46.2,29.69,East,94,0.0,5.0,88,0.05,,---,0.29,VWS V14.01,2013-03-11 18:15:00,
2013-03-11 14:20:00,49.6,46.2,29.69,South,175,2.0,6.0,88,0.05,,---,0.29,VWS V14.01,2013-03-11 18:20:00,
2013-03-11 14:25:00,49.6,46.2,29.68,SE,137,1.0,6.0,88,0.05,,---,0.29,VWS V14.01,2013-03-11 18:25:00,
2013-03-11 14:30:00,49.6,46.2,29.68,SE,129,2.0,6.0,88,0.05,,---,0.29,VWS V14.01,2013-03-11 18:30:00,
2013-03-11 14:31:00,49.6,46.2,29.67,South,175,3.0,6.0,88,0.05,,---,0.29,VWS V14.01,2013-03-11 18:31:00,
2013-03-11 14:36:00,49.7,46.0,29.67,SE,124,3.0,6.0,87,0.05,,---,0.29,VWS V14.01,2013-03-11 18:36:00,
2013-03-11 14:41:00,50.0,46.0,29.67,South,180,1.0,8.0,86,0.05,,---,0.29,VWS V14.01,2013-03-11 18:41:00,
2013-03-11 14:46:00,50.3,45.7,29.66,South,186,3.0,9.0,84,0.05,,---,0.29,VWS V14.01,2013-03-11 18:46:00,
2013-03-11 14:51:00,50.7,45.7,29.66,SSW,211,2.0,9.0,83,0.05,,---,0.29,VWS V14.01,2013-03-11 18:51:00,
2013-03-11 14:58:00,51.4,45.8,29.66,ESE,111,4.0,7.0,81,0.01,,---,0.29,VWS V14.01,2013-03-11 18:58:00,
2013-03-11 15:00:00,51.3,45.7,29.66,South,180,7.0,9.0,81,0.05,,---,0.29,VWS V14.01,2013-03-11 19:00:00,
2013-03-11 15:03:00,51.9,45.6,29.66,South,180,3.0,11.0,79,0.01,,---,0.29,VWS V14.01,2013-03-11 19:03:00,
2013-03-11 15:08:00,52.7,46.0,29.66,SSW,211,1.0,11.0,78,0.01,,---,0.29,VWS V14.01,2013-03-11 19:08:00,
2013-03-11 15:13:00,53.3,46.3,29.66,SE,142,4.0,15.0,77,0.01,,---,0.29,VWS V14.01,2013-03-11 19:13:00,
2013-03-11 15:18:00,53.7,46.3,29.65,South,180,4.0,15.0,76,0.01,,---,0.29,VWS V14.01,2013-03-11 19:18:00,
2013-03-11 15:23:00,53.9,46.5,29.66,South,190,3.0,15.0,76,0.01,,---,0.29,VWS V14.01,2013-03-11 19:23:00,
2013-03-11 15:28:00,54.0,47.0,29.65,South,175,6.0,7.0,77,0.00,,---,0.29,VWS V14.01,2013-03-11 19:28:00,
2013-03-11 15:30:00,54.0,47.0,29.66,SSE,157,3.0,15.0,77,0.01,,---,0.29,VWS V14.01,2013-03-11 19:30:00,
2013-03-11 15:33:00,54.2,46.8,29.65,ESE,102,1.0,14.0,76,0.00,,---,0.29,VWS V14.01,2013-03-11 19:33:00,
2013-03-11 15:38:00,54.2,47.2,29.65,South,180,7.0,15.0,77,0.00,,---,0.29,VWS V14.01,2013-03-11 19:38:00,
2013-03-11 15:43:00,54.1,47.1,29.64,South,170,5.0,15.0,77,0.00,,---,0.29,VWS V14.01,2013-03-11 19:43:00,
2013-03-11 15:48:00,53.9,47.5,29.64,SW,233,2.0,15.0,79,0.00,,---,0.29,VWS V14.01,2013-03-11 19:48:00,
2013-03-11 15:53:00,53.6,47.6,29.64,ESE,105,1.0,15.0,80,0.01,,---,0.30,VWS V14.01,2013-03-11 19:53:00,
2013-03-11 15:58:00,53.2,47.9,29.64,SSW,192,1.0,9.0,82,0.01,,---,0.30,VWS V14.01,2013-03-11 19:58:00,
2013-03-11 16:00:00,53.3,48.0,29.64,SSE,159,5.0,15.0,82,0.01,,---,0.30,VWS V14.01,2013-03-11 20:00:00,
2013-03-11 16:04:00,52.9,47.9,29.64,SE,138,0.0,11.0,83,0.01,,---,0.30,VWS V14.01,2013-03-11 20:04:00,
2013-03-11 16:09:00,52.8,48.1,29.63,ESE,116,3.0,11.0,84,0.01,,---,0.30,VWS V14.01,2013-03-11 20:09:00,
2013-03-11 16:14:00,52.8,48.1,29.62,South,186,5.0,11.0,84,0.01,,---,0.30,VWS V14.01,2013-03-11 20:14:00,
2013-03-11 16:19:00,52.8,48.1,29.62,SSW,195,9.0,11.0,84,0.01,,---,0.30,VWS V14.01,2013-03-11 20:19:00,
2013-03-11 16:24:00,52.9,48.2,29.62,SW,214,6.0,16.0,84,0.01,,---,0.30,VWS V14.01,2013-03-11 20:24:00,
2013-03-11 16:29:00,53.1,48.4,29.61,South,180,2.0,8.0,84,0.01,,---,0.30,VWS V14.01,2013-03-11 20:29:00,
2013-03-11 16:30:00,53.1,48.4,29.61,East,96,3.0,16.0,84,0.01,,---,0.30,VWS V14.01,2013-03-11 20:30:00,
2013-03-11 16:34:00,53.3,48.6,29.61,South,180,5.0,8.0,84,0.01,,---,0.30,VWS V14.01,2013-03-11 20:34:00,
2013-03-11 16:39:00,53.5,48.5,29.61,South,175,6.0,12.0,83,0.01,,---,0.30,VWS V14.01,2013-03-11 20:39:00,
2013-03-11 16:44:00,53.5,48.5,29.61,SE,138,3.0,14.0,83,0.01,,---,0.30,VWS V14.01,2013-03-11 20:44:00,
2013-03-11 16:49:00,53.5,48.5,29.60,South,180,3.0,14.0,83,0.01,,---,0.30,VWS V14.01,2013-03-11 20:49:00,
2013-03-11 16:54:00,53.5,48.5,29.60,East,94,6.0,14.0,83,0.01,,---,0.30,VWS V14.01,2013-03-11 20:54:00,
2013-03-11 16:59:00,53.5,48.8,29.60,South,190,5.0,11.0,84,0.00,,---,0.30,VWS V14.01,2013-03-11 20:59:00,
2013-03-11 17:00:00,53.5,48.5,29.60,SE,129,3.0,14.0,83,0.01,,---,0.30,VWS V14.01,2013-03-11 21:00:00,
2013-03-11 17:04:00,53.5,48.8,29.60,SE,143,2.0,11.0,84,0.00,,---,0.30,VWS V14.01,2013-03-11 21:04:00,
2013-03-11 17:09:00,53.5,48.8,29.60,SW,219,4.0,11.0,84,0.00,,---,0.30,VWS V14.01,2013-03-11 21:09:00,
2013-03-11 17:14:00,53.5,48.8,29.60,South,184,1.0,12.0,84,0.01,,---,0.31,VWS V14.01,2013-03-11 21:14:00,
2013-03-11 17:19:00,53.5,48.8,29.59,SE,128,0.0,12.0,84,0.01,,---,0.31,VWS V14.01,2013-03-11 21:19:00,
2013-03-11 17:24:00,53.5,48.8,29.59,SSE,159,10.0,12.0,84,0.01,,---,0.31,VWS V14.01,2013-03-11 21:24:00,
2013-03-11 17:29:00,53.5,48.8,29.58,SE,145,2.0,5.0,84,0.01,,---,0.31,VWS V14.01,2013-03-11 21:29:00,
2013-03-11 17:30:00,53.5,48.8,29.59,South,180,3.0,12.0,84,0.01,,---,0.31,VWS V14.01,2013-03-11 21:30:00,
2013-03-11 17:34:00,53.7,48.7,29.58,SSE,159,2.0,12.0,83,0.01,,---,0.31,VWS V14.01,2013-03-11 21:34:00,
2013-03-11 17:39:00,53.8,48.8,29.59,WSW,242,5.0,13.0,83,0.01,,---,0.31,VWS V14.01,2013-03-11 21:39:00,
2013-03-11 17:44:00,54.0,48.6,29.58,East,101,4.0,13.0,82,0.01,,---,0.31,VWS V14.01,2013-03-11 21:44:00,
2013-03-11 17:49:00,54.0,49.0,29.58,South,188,3.0,13.0,83,0.01,,---,0.31,VWS V14.01,2013-03-11 21:49:00,
2013-03-11 17:54:00,54.1,48.7,29.58,WSW,238,2.0,13.0,82,0.01,,---,0.31,VWS V14.01,2013-03-11 21:54:00,
2013-03-11 17:59:00,54.3,48.9,29.58,SE,132,2.0,7.0,82,0.01,,---,0.31,VWS V14.01,2013-03-11 21:59:00,
2013-03-11 18:00:00,54.2,48.8,29.58,South,175,4.0,13.0,82,0.01,,---,0.31,VWS V14.01,2013-03-11 22:00:00,
2013-03-11 18:04:00,54.4,48.7,29.58,SW,236,3.0,8.0,81,0.01,,---,0.31,VWS V14.01,2013-03-11 22:04:00,
2013-03-11 18:09:00,54.3,48.9,29.58,SE,136,3.0,8.0,82,0.01,,---,0.31,VWS V14.01,2013-03-11 22:09:00,
2013-03-11 18:14:00,54.1,49.1,29.58,ESE,108,3.0,10.0,83,0.01,,---,0.31,VWS V14.01,2013-03-11 22:14:00,
2013-03-11 18:19:00,53.9,48.9,29.59,SE,146,2.0,10.0,83,0.02,,---,0.32,VWS V14.01,2013-03-11 22:19:00,
2013-03-11 18:24:00,53.6,49.2,29.59,SE,124,0.0,10.0,85,0.02,,---,0.32,VWS V14.01,2013-03-11 22:24:00,
2013-03-11 18:29:00,53.3,48.9,29.59,SSW,200,3.0,6.0,85,0.02,,---,0.33,VWS V14.01,2013-03-11 22:29:00,
2013-03-11 18:30:00,53.4,49.0,29.59,ESE,122,3.0,10.0,85,0.03,,---,0.33,VWS V14.01,2013-03-11 22:30:00,
2013-03-11 18:34:00,53.1,49.0,29.59,SE,131,3.0,10.0,86,0.02,,---,0.33,VWS V14.01,2013-03-11 22:34:00,
2013-03-11 18:39:00,52.9,48.8,29.59,South,187,2.0,19.0,86,0.03,,---,0.34,VWS V14.01,2013-03-11 22:39:00,
2013-03-11 18:44:00,52.9,49.1,29.59,SSE,157,2.0,19.0,87,0.03,,---,0.34,VWS V14.01,2013-03-11 22:44:00,
2013-03-11 18:49:00,52.8,49.0,29.59,ESE,104,3.0,19.0,87,0.03,,---,0.34,VWS V14.01,2013-03-11 22:49:00,
2013-03-11 18:54:00,52.7,49.0,29.59,SSE,161,2.0,19.0,87,0.03,,---,0.34,VWS V14.01,2013-03-11 22:54:00,
2013-03-11 18:59:00,52.6,49.2,29.60,SSW,195,7.0,15.0,88,0.04,,---,0.35,VWS V14.01,2013-03-11 22:59:00,
2013-03-11 19:00:00,52.7,49.2,29.60,SSW,211,0.0,19.0,88,0.04,,---,0.35,VWS V14.01,2013-03-11 23:00:00,
2013-03-11 19:05:00,52.5,49.4,29.63,WSW,258,0.0,15.0,89,0.05,,---,0.36,VWS V14.01,2013-03-11 23:05:00,
2013-03-11 19:09:00,51.8,48.4,29.63,WNW,284,1.0,15.0,88,0.08,,---,0.39,VWS V14.01,2013-03-11 23:09:00,
2013-03-11 19:15:00,50.6,47.5,29.65,SW,235,0.0,15.0,89,0.18,,---,0.49,VWS V14.01,2013-03-11 23:15:00,
2013-03-11 19:20:00,49.5,46.7,29.65,NNW,328,0.0,15.0,90,0.28,,---,0.59,VWS V14.01,2013-03-11 23:20:00,
2013-03-11 19:25:00,49.0,46.5,29.65,SSW,210,5.0,15.0,91,0.31,,---,0.62,VWS V14.01,2013-03-11 23:25:00,
2013-03-11 19:30:00,48.6,46.4,29.65,South,180,6.0,6.0,92,0.31,,---,0.64,VWS V14.01,2013-03-11 23:30:00,
2013-03-11 19:35:00,48.3,46.4,29.65,South,180,1.0,8.0,93,0.32,,---,0.65,VWS V14.01,2013-03-11 23:35:00,
2013-03-11 19:40:00,48.2,46.3,29.65,SE,138,0.0,8.0,93,0.33,,---,0.66,VWS V14.01,2013-03-11 23:40:00,
2013-03-11 19:45:00,48.1,46.2,29.65,SSW,195,4.0,8.0,93,0.35,,---,0.68,VWS V14.01,2013-03-11 23:45:00,
2013-03-11 19:50:00,47.9,46.3,29.65,SSE,154,4.0,8.0,94,0.37,,---,0.70,VWS V14.01,2013-03-11 23:50:00,
2013-03-11 19:55:00,47.8,46.2,29.65,SSE,162,1.0,8.0,94,0.38,,---,0.71,VWS V14.01,2013-03-11 23:55:00,
2013-03-11 20:00:00,47.8,46.2,29.65,SSE,162,0.0,2.0,94,0.37,,---,0.72,VWS V14.01,2013-03-12 00:00:00,
2013-03-11 20:05:00,47.7,46.1,29.65,South,187,0.0,3.0,94,0.39,,---,0.74,VWS V14.01,2013-03-12 00:05:00,
2013-03-11 20:10:00,47.6,46.0,29.64,WSW,253,0.0,6.0,94,0.41,,---,0.76,VWS V14.01,2013-03-12 00:10:00,
2013-03-11 20:15:00,47.6,46.0,29.65,SSW,195,4.0,6.0,94,0.43,,---,0.78,VWS V14.01,2013-03-12 00:15:00,
2013-03-11 20:20:00,47.4,45.8,29.65,WSW,238,1.0,6.0,94,0.45,,---,0.80,VWS V14.01,2013-03-12 00:20:00,
2013-03-11 20:25:00,47.3,45.7,29.66,SW,215,1.0,6.0,94,0.46,,---,0.81,VWS V14.01,2013-03-12 00:25:00,
2013-03-11 20:30:00,47.2,45.6,29.66,South,185,2.0,8.0,94,0.21,,---,0.84,VWS V14.01,2013-03-12 00:30:00,
2013-03-11 20:35:00,47.1,45.5,29.66,SSE,155,3.0,8.0,94,0.23,,---,0.86,VWS V14.01,2013-03-12 00:35:00,
2013-03-11 20:40:00,47.0,45.7,29.67,SSW,201,0.0,8.0,95,0.26,,---,0.89,VWS V14.01,2013-03-12 00:40:00,
2013-03-11 20:45:00,47.0,45.7,29.67,SSW,201,0.0,8.0,95,0.28,,---,0.91,VWS V14.01,2013-03-12 00:45:00,
2013-03-11 20:50:00,46.9,45.5,29.67,SSW,201,2.0,8.0,95,0.29,,---,0.92,VWS V14.01,2013-03-12 00:50:00,
2013-03-11 20:55:00,46.9,45.5,29.67,SSW,201,0.0,8.0,95,0.32,,---,0.95,VWS V14.01,2013-03-12 00:55:00,
2013-03-11 21:00:00,46.9,45.5,29.68,SW,219,0.0,3.0,95,0.25,,---,0.97,VWS V14.01,2013-03-12 01:00:00,
2013-03-11 21:05:00,46.8,45.5,29.68,SSW,204,0.0,3.0,95,0.27,,---,0.99,VWS V14.01,2013-03-12 01:05:00,
2013-03-11 21:10:00,46.8,45.5,29.68,SSW,202,0.0,3.0,95,0.28,,---,1.00,VWS V14.01,2013-03-12 01:10:00,
2013-03-11 21:15:00,46.8,45.5,29.68,SSW,202,0.0,3.0,95,0.29,,---,1.01,VWS V14.01,2013-03-12 01:15:00,
2013-03-11 21:20:00,46.7,45.3,29.68,SSW,195,5.0,8.0,95,0.32,,---,1.04,VWS V14.01,2013-03-12 01:20:00,
2013-03-11 21:25:00,46.3,45.0,29.68,SW,220,0.0,8.0,95,0.34,,---,1.06,VWS V14.01,2013-03-12 01:25:00,
2013-03-11 21:30:00,45.9,44.3,29.69,SSW,197,3.0,3.0,94,0.24,,---,1.07,VWS V14.01,2013-03-12 01:30:00,
2013-03-11 21:35:00,45.6,44.0,29.70,SSW,208,2.0,6.0,94,0.24,,---,1.07,VWS V14.01,2013-03-12 01:35:00,
2013-03-11 21:40:00,45.4,43.8,29.70,SW,228,1.0,6.0,94,0.25,,---,1.08,VWS V14.01,2013-03-12 01:40:00,
2013-03-11 21:45:00,44.9,43.3,29.70,NNW,328,1.0,7.0,94,0.25,,---,1.08,VWS V14.01,2013-03-12 01:45:00,
2013-03-11 21:50:00,44.7,43.1,29.70,NNW,328,0.0,7.0,94,0.25,,---,1.08,VWS V14.01,2013-03-12 01:50:00,
2013-03-11 21:55:00,44.5,42.9,29.70,NNE,13,0.0,7.0,94,0.25,,---,1.08,VWS V14.01,2013-03-12 01:55:00,
2013-03-11 22:00:00,44.3,42.7,29.71,SE,143,0.0,4.0,94,0.12,,---,1.08,VWS V14.01,2013-03-12 02:00:00,
2013-03-11 22:05:00,44.2,42.6,29.71,SSE,147,0.0,4.0,94,0.12,,---,1.08,VWS V14.01,2013-03-12 02:05:00,
2013-03-11 22:10:00,44.0,42.4,29.71,SSW,195,3.0,4.0,94,0.12,,---,1.08,VWS V14.01,2013-03-12 02:10:00,
2013-03-11 22:15:00,43.8,41.9,29.71,WSW,255,2.0,7.0,93,0.12,,---,1.08,VWS V14.01,2013-03-12 02:15:00,
2013-03-11 22:20:00,43.7,41.8,29.71,SE,143,0.0,7.0,93,0.12,,---,1.08,VWS V14.01,2013-03-12 02:20:00,
2013-03-11 22:25:00,43.6,41.7,29.72,SW,215,4.0,7.0,93,0.12,,---,1.08,VWS V14.01,2013-03-12 02:25:00,
2013-03-11 22:30:00,43.5,41.6,29.72,SSW,192,3.0,6.0,93,0.01,,---,1.08,VWS V14.01,2013-03-12 02:30:00,
2013-03-11 22:35:00,43.4,41.2,29.72,ENE,77,0.0,6.0,92,0.01,,---,1.08,VWS V14.01,2013-03-12 02:35:00,
2013-03-11 22:40:00,43.4,41.2,29.72,SW,233,0.0,6.0,92,0.01,,---,1.08,VWS V14.01,2013-03-12 02:40:00,
2013-03-11 22:45:00,43.3,41.1,29.73,SW,233,0.0,6.0,92,0.01,,---,1.08,VWS V14.01,2013-03-12 02:45:00,
2013-03-11 22:50:00,43.2,41.0,29.73,SW,215,2.0,6.0,92,0.01,,---,1.08,VWS V14.01,2013-03-12 02:50:00,
2013-03-11 22:56:00,43.2,41.0,29.73,SW,221,0.0,6.0,92,0.01,,---,1.08,VWS V14.01,2013-03-12 02:56:00,
2013-03-11 23:00:00,43.2,41.0,29.74,SW,221,0.0,6.0,92,0.01,,---,1.08,VWS V14.01,2013-03-12 03:00:00,
2013-03-11 23:01:00,43.1,40.7,29.74,WNW,297,2.0,6.0,91,0.00,,---,1.08,VWS V14.01,2013-03-12 03:01:00,
2013-03-11 23:06:00,42.8,40.1,29.74,NW,317,0.0,6.0,90,0.00,,---,1.08,VWS V14.01,2013-03-12 03:06:00,
2013-03-11 23:11:00,42.5,39.5,29.74,NNW,347,0.0,6.0,89,0.00,,---,1.08,VWS V14.01,2013-03-12 03:11:00,
2013-03-11 23:16:00,42.3,39.3,29.74,SSW,195,7.0,7.0,89,0.00,,---,1.08,VWS V14.01,2013-03-12 03:16:00,
2013-03-11 23:21:00,42.2,38.3,29.74,South,184,0.0,8.0,86,0.00,,---,1.08,VWS V14.01,2013-03-12 03:21:00,
2013-03-11 23:26:00,42.1,38.2,29.74,SE,139,1.0,8.0,86,0.00,,---,1.08,VWS V14.01,2013-03-12 03:26:00,
2013-03-11 23:30:00,42.1,38.2,29.74,South,180,0.0,8.0,86,0.00,,---,1.08,VWS V14.01,2013-03-12 03:30:00,
2013-03-11 23:31:00,42.2,38.0,29.75,SSE,153,8.0,8.0,85,0.00,,---,1.08,VWS V14.01,2013-03-12 03:31:00,
2013-03-11 23:36:00,42.2,37.7,29.74,West,262,1.0,11.0,84,0.00,,---,1.08,VWS V14.01,2013-03-12 03:36:00,
2013-03-11 23:41:00,42.1,37.3,29.75,SW,232,0.0,15.0,83,0.00,,---,1.08,VWS V14.01,2013-03-12 03:41:00,
2013-03-11 23:47:00,42.0,37.5,29.74,SSE,160,1.0,15.0,84,0.00,,---,1.08,VWS V14.01,2013-03-12 03:47:00,
2013-03-11 23:52:00,41.8,37.0,29.75,SW,230,4.0,15.0,83,0.00,,---,1.08,VWS V14.01,2013-03-12 03:52:00,
2013-03-11 23:57:00,41.8,37.3,29.75,South,180,1.0,15.0,84,0.00,,---,1.08,VWS V14.01,2013-03-12 03:57:00,